This is the latest recevied weather packets stored in our database for station/object KO6LQJ. If no packets are shown the sender has not sent any weather packets the latest 1 day(s).
| Time | Temp. | Humidity | Pressure | Rain* | Wind** | Luminosity | Snow |
|---|---|---|---|---|---|---|---|
| 1778039037 | 15° C | 63% | 1017.5 hPa | 0 mm | 0 m/s | 0 W/m² | - |
| 1778038734 | 15° C | 64% | 1017.4 hPa | 0 mm | 0 m/s | 0 W/m² | - |
| 1778038431 | 15° C | 63% | 1017.4 hPa | 0 mm | 0 m/s | 0 W/m² | - |
| 1778038128 | 15° C | 63% | 1017.4 hPa | 0 mm | 0 m/s | 0 W/m² | - |
| 1778037825 | 15° C | 63% | 1017.4 hPa | 0 mm | 0 m/s | 0 W/m² | - |
| 1778037522 | 15.56° C | 62% | 1017 hPa | 0 mm | 0 m/s | 0 W/m² | - |
| 1778037219 | 15.56° C | 61% | 1017.2 hPa | 0 mm | 0 m/s | 0 W/m² | - |
| 1778036917 | 15.56° C | 60% | 1017 hPa | 0 mm | 0 m/s | 0 W/m² | - |
| 1778036615 | 16.11° C | 59% | 1017 hPa | 0 mm | 0 m/s | 0 W/m² | - |
| 1778036311 | 16.11° C | 57% | 1016.8 hPa | 0 mm | 0 m/s | 0 W/m² | - |
| 1778036007 | 16.67° C | 56% | 1016.7 hPa | 0 mm | 0 m/s | 0 W/m² | - |
| 1778035705 | 16.67° C | 55% | 1016.5 hPa | 0 mm | 0 m/s | 0 W/m² | - |
| 1778035401 | 16.67° C | 55% | 1016.5 hPa | 0 mm | 0 m/s | 0 W/m² | - |
| 1778035097 | 16.67° C | 55% | 1016.7 hPa | 0 mm | 0.45 m/s, 157° | 1 W/m² | - |
| 1778034794 | 16.67° C | 55% | 1016.6 hPa | 0 mm | 0 m/s | 1 W/m² | - |
| 1778034491 | 16.67° C | 55% | 1016.4 hPa | 0 mm | 0 m/s | 2 W/m² | - |
| 1778034189 | 16.67° C | 55% | 1016.4 hPa | 0 mm | 0 m/s | 3 W/m² | - |
| 1778033887 | 16.67° C | 54% | 1016.3 hPa | 0 mm | 0.45 m/s, 143° | 5 W/m² | - |
| 1778033583 | 16.67° C | 55% | 1016.3 hPa | 0 mm | 0 m/s | 8 W/m² | - |
| 1778033280 | 17.22° C | 54% | 1016.2 hPa | 0 mm | 0 m/s | 12 W/m² | - |
| 1778032978 | 17.22° C | 54% | 1016.2 hPa | 0 mm | 0 m/s | 19 W/m² | - |
| 1778032676 | 17.78° C | 53% | 1016 hPa | 0 mm | 0 m/s | 31 W/m² | - |
| 1778032374 | 17.22° C | 54% | 1016.1 hPa | 0 mm | 0 m/s | 26 W/m² | - |
| 1778032069 | 17.22° C | 55% | 1016.2 hPa | 0 mm | 0 m/s | 26 W/m² | - |
| 1778031766 | 17.22° C | 54% | 1016.1 hPa | 0 mm | 0 m/s | 16 W/m² | - |
* Rain latest hour (hover to see other rain measurements)
** Current wind speed in m/s (hover to see current wind gust speed)